When you browse on this site, cookies collect data to enhance your experience and personalize the content and advertising you see.
Visit our Privacy Policy to learn more. By continuing to use the site, you agree to this use of cookies and data.
  • In Hungary
  • List of Countries
  • For 7 days
  • Water Temperature
  • Satellite Maps
  • Weather Map
  • News
  • Weather Widgets
  • user-avatar
    Login

    Hourly Weather Quito

    Today, 22 March, Friday

    Time Temperature Precipitation Wind Pressure Humidity
    00:00 +19°C° 0.9 mm 1 mps 623 mmHg 92%
    01:00 +18°C° 0.9 mm 1 mps 623 mmHg 92%
    02:00 +18°C° 0.1 mm 1 mps 622 mmHg 92%
    03:00 +18°C° 0.1 mm 1 mps 622 mmHg 93%
    04:00 +16°C° 0.1 mm 1 mps 622 mmHg 93%
    05:00 +18°C° 0 mm 1 mps 622 mmHg 92%
    06:00 +18°C° 0 mm 1 mps 622 mmHg 91%
    07:00 +18°C° 0 mm 1 mps 623 mmHg 90%
    08:00 +21°C° 0.3 mm 1 mps 623 mmHg 82%
    09:00 +23°C° 0.3 mm 1 mps 624 mmHg 73%
    10:00 +25°C° 0.3 mm 1 mps 625 mmHg 65%
    11:00 +26°C° 0 mm 2 mps 625 mmHg 59%
    12:00 +27°C° 0 mm 2 mps 625 mmHg 53%
    13:00 +28°C° 0 mm 3 mps 625 mmHg 47%
    14:00 +27°C° 0.1 mm 3 mps 624 mmHg 52%
    15:00 +27°C° 0.1 mm 2 mps 624 mmHg 58%
    16:00 +26°C° 0.1 mm 2 mps 623 mmHg 63%
    17:00 +24°C° 0.9 mm 2 mps 623 mmHg 70%
    18:00 +22°C° 0.9 mm 1 mps 623 mmHg 77%
    19:00 +20°C° 0.9 mm 1 mps 622 mmHg 84%
    20:00 +19°C° 0.5 mm 1 mps 622 mmHg 86%
    21:00 +19°C° 0.5 mm 1 mps 622 mmHg 88%
    22:00 +18°C° 0.5 mm 1 mps 622 mmHg 90%
    23:00 +18°C° 0 mm 1 mps 622 mmHg 91%

    Tomorrow, 23 March, Saturday

    Time Temperature Precipitation Wind Pressure Humidity
    00:00 +18°C° 0 mm 1 mps 622 mmHg 92%
    01:00 +16°C° 0 mm 1 mps 622 mmHg 93%
    02:00 +16°C° 0.5 mm 1 mps 622 mmHg 93%
    03:00 +16°C° 0.5 mm 1 mps 622 mmHg 94%
    04:00 +16°C° 0.5 mm 1 mps 621 mmHg 95%
    05:00 +16°C° 0 mm 1 mps 622 mmHg 94%
    06:00 +18°C° 0 mm 1 mps 622 mmHg 93%
    07:00 +18°C° 0 mm 1 mps 623 mmHg 92%
    08:00 +21°C° 0.4 mm 1 mps 623 mmHg 83%
    09:00 +23°C° 0.4 mm 1 mps 624 mmHg 75%
    10:00 +25°C° 0.4 mm 2 mps 625 mmHg 67%
    11:00 +26°C° 0.2 mm 2 mps 625 mmHg 61%
    12:00 +27°C° 0.2 mm 3 mps 624 mmHg 56%
    13:00 +28°C° 0.2 mm 3 mps 624 mmHg 51%
    14:00 +27°C° 1 mm 3 mps 623 mmHg 56%
    15:00 +27°C° 1 mm 2 mps 623 mmHg 62%
    16:00 +26°C° 1 mm 1 mps 622 mmHg 68%
    17:00 +24°C° 0.4 mm 1 mps 622 mmHg 73%
    18:00 +22°C° 0.4 mm 1 mps 622 mmHg 78%
    19:00 +20°C° 0.4 mm 1 mps 621 mmHg 83%
    20:00 +20°C° 0.1 mm 1 mps 621 mmHg 85%
    21:00 +19°C° 0.1 mm 1 mps 622 mmHg 87%
    22:00 +18°C° 0.1 mm 2 mps 622 mmHg 90%
    23:00 +17°C° 0 mm 2 mps 622 mmHg 90%

    Day after tomorrow, 24 March, Sunday

    Time Temperature Precipitation Wind Pressure Humidity
    00:00 +17°C° 0 mm 2 mps 622 mmHg 90%
    01:00 +17°C° 0 mm 2 mps 621 mmHg 90%
    02:00 +18°C° 0 mm 1 mps 621 mmHg 89%
    03:00 +18°C° 0 mm 1 mps 621 mmHg 88%
    04:00 +18°C° 0 mm 1 mps 621 mmHg 87%
    05:00 +18°C° 0 mm 1 mps 622 mmHg 86%
    06:00 +19°C° 0 mm 1 mps 622 mmHg 85%
    07:00 +19°C° 0 mm 1 mps 623 mmHg 85%
    08:00 +21°C° 0 mm 1 mps 623 mmHg 76%
    09:00 +24°C° 0 mm 2 mps 624 mmHg 68%
    10:00 +26°C° 0 mm 2 mps 625 mmHg 59%
    11:00 +27°C° 0.1 mm 3 mps 624 mmHg 56%
    12:00 +27°C° 0.1 mm 3 mps 624 mmHg 53%
    13:00 +28°C° 0.1 mm 3 mps 623 mmHg 50%
    14:00 +27°C° 0.1 mm 3 mps 623 mmHg 54%
    15:00 +27°C° 0.1 mm 2 mps 622 mmHg 59%
    16:00 +26°C° 0.1 mm 2 mps 622 mmHg 63%
    17:00 +24°C° 0.3 mm 2 mps 622 mmHg 70%
    18:00 +21°C° 0.3 mm 2 mps 622 mmHg 77%
    19:00 +19°C° 0.3 mm 2 mps 621 mmHg 85%
    20:00 +19°C° 0.4 mm 2 mps 622 mmHg 86%
    21:00 +18°C° 0.4 mm 2 mps 622 mmHg 87%
    22:00 +18°C° 0.4 mm 2 mps 622 mmHg 88%
    23:00 +19°C° 0.1 mm 1 mps 622 mmHg 87%

    25 March, Monday

    Time Temperature Precipitation Wind Pressure Humidity
    00:00 +19°C° 0.1 mm 1 mps 622 mmHg 87%
    01:00 +19°C° 0.1 mm 1 mps 621 mmHg 87%
    02:00 +18°C° 0 mm 1 mps 621 mmHg 87%
    03:00 +18°C° 0 mm 1 mps 621 mmHg 86%
    04:00 +15°C° 0 mm 0 mps 620 mmHg 86%
    05:00 +16°C° 0 mm 0 mps 621 mmHg 86%
    06:00 +17°C° 0 mm 0 mps 622 mmHg 86%
    07:00 +17°C° 0 mm 0 mps 623 mmHg 85%
    08:00 +21°C° 0 mm 1 mps 623 mmHg 76%
    09:00 +24°C° 0 mm 1 mps 624 mmHg 67%
    10:00 +26°C° 0 mm 2 mps 625 mmHg 58%
    11:00 +27°C° 0 mm 2 mps 624 mmHg 54%
    12:00 +27°C° 0 mm 3 mps 624 mmHg 50%
    13:00 +28°C° 0 mm 3 mps 623 mmHg 47%
    14:00 +28°C° 0 mm 3 mps 623 mmHg 51%
    15:00 +27°C° 0 mm 2 mps 622 mmHg 54%
    16:00 +27°C° 0 mm 2 mps 622 mmHg 58%
    17:00 +25°C° 0 mm 1 mps 622 mmHg 63%
    18:00 +23°C° 0 mm 1 mps 621 mmHg 67%
    19:00 +19°C° 0 mm 0 mps 621 mmHg 72%
    20:00 +18°C° 0 mm 0 mps 622 mmHg 73%
    21:00 +18°C° 0 mm 0 mps 622 mmHg 74%
    22:00 +19°C° 0 mm 1 mps 622 mmHg 75%
    23:00 +19°C° 0 mm 1 mps 622 mmHg 78%

    26 March, Tuesday

    Time Temperature Precipitation Wind Pressure Humidity
    00:00 +19°C° 0 mm 1 mps 622 mmHg 80%
    01:00 +17°C° 0 mm 0 mps 622 mmHg 83%
    02:00 +18°C° 0.6 mm 1 mps 622 mmHg 86%
    03:00 +18°C° 0.6 mm 1 mps 621 mmHg 89%
    04:00 +18°C° 0.6 mm 1 mps 621 mmHg 93%
    05:00 +18°C° 0 mm 1 mps 622 mmHg 92%
    06:00 +18°C° 0 mm 1 mps 622 mmHg 91%
    07:00 +18°C° 0 mm 1 mps 623 mmHg 91%
    08:00 +21°C° 0 mm 1 mps 624 mmHg 81%
    09:00 +23°C° 0 mm 1 mps 624 mmHg 71%
    10:00 +25°C° 0 mm 1 mps 625 mmHg 61%
    11:00 +26°C° 0 mm 1 mps 625 mmHg 57%
    12:00 +26°C° 0 mm 2 mps 624 mmHg 53%
    13:00 +27°C° 0 mm 2 mps 624 mmHg 49%
    14:00 +27°C° 0.3 mm 2 mps 623 mmHg 55%
    15:00 +26°C° 0.3 mm 2 mps 623 mmHg 61%
    16:00 +25°C° 0.3 mm 2 mps 622 mmHg 67%
    17:00 +24°C° 0.5 mm 2 mps 622 mmHg 72%
    18:00 +21°C° 0.5 mm 2 mps 622 mmHg 76%
    19:00 +20°C° 0.5 mm 1 mps 622 mmHg 81%
    20:00 +20°C° 0 mm 1 mps 622 mmHg 82%
    21:00 +19°C° 0 mm 1 mps 622 mmHg 84%
    22:00 +18°C° 0 mm 1 mps 622 mmHg 86%
    23:00 +18°C° 0 mm 1 mps 622 mmHg 87%

    27 March, Wednesday

    Time Temperature Precipitation Wind Pressure Humidity
    00:00 +16°C° 0 mm 1 mps 622 mmHg 88%
    01:00 +16°C° 0 mm 1 mps 622 mmHg 89%
    02:00 +16°C° 0 mm 1 mps 622 mmHg 89%
    03:00 +16°C° 0 mm 1 mps 621 mmHg 88%
    04:00 +16°C° 0 mm 1 mps 621 mmHg 88%
    05:00 +18°C° 0 mm 1 mps 622 mmHg 86%
    06:00 +16°C° 0 mm 0 mps 623 mmHg 84%
    07:00 +17°C° 0 mm 0 mps 624 mmHg 83%
    08:00 +21°C° 0 mm 1 mps 624 mmHg 74%
    09:00 +24°C° 0 mm 1 mps 625 mmHg 66%
    10:00 +26°C° 0 mm 2 mps 626 mmHg 58%
    11:00 +27°C° 0.3 mm 2 mps 625 mmHg 57%
    12:00 +27°C° 0.3 mm 2 mps 625 mmHg 55%
    13:00 +27°C° 0.3 mm 2 mps 624 mmHg 53%
    14:00 +27°C° 0.1 mm 2 mps 624 mmHg 54%
    15:00 +27°C° 0.1 mm 2 mps 624 mmHg 54%
    16:00 +27°C° 0.1 mm 2 mps 623 mmHg 55%
    17:00 +25°C° 0 mm 1 mps 623 mmHg 61%
    18:00 +23°C° 0 mm 1 mps 623 mmHg 68%
    19:00 +21°C° 0 mm 1 mps 623 mmHg 75%
    20:00 +20°C° 0.4 mm 1 mps 623 mmHg 76%
    21:00 +19°C° 0.4 mm 1 mps 623 mmHg 78%
    22:00 +19°C° 0.4 mm 1 mps 623 mmHg 79%
    23:00 +18°C° 0 mm 1 mps 623 mmHg 81%
    Show more